THORAD AGENA D DEB

Satellite information

Favourite Embed

Satellite Type and Status

DEBRISIN ORBIT

Key statistics

Satellite THORAD AGENA D DEB at a glance.

Uptime

20181

Days in orbit

Revolutions

≈ 14.0

Per day

Orbit

SSO

Sun Synchronous Orbit

Inclination

100.0

Latest

Satellite identification and parameters

Extended collection of information and parameters for THORAD AGENA D DEB.

Object identification

Identified? True

Debris? True

Object name: THORAD AGENA D DEB

International designator: 1970-025TH

Object number (NORAD): 42551

Object ID (CCSDS): 42551

Country: UNITED STATES OF AMERICA (US)

Current information (Y/N): Y

RCS size: SMALL

Orbital parameters

Period: 102.807 minutes

Inclination: 100.0004 deg

SMA: 7269.581 km

Apoapsis: 900.312 km

Periapsis: 882.579 km

RAAN: 224.6653 deg

Eccentricy: 0.0012197

Argument of periapsis: 265.6052 deg

Mean anomaly: 94.3716 deg

Mean motion: 14.00679355 rev/day

Mean motion (dot): 0.00001322 rev/day2

B* drag term: 0.00092247 1/REarth

Two-line elements (TLE)

Creation date: July 7, 2025, 6:36 a.m.

Reference frame: TEME

Reference center: EARTH

Epoch: July 6, 2025, 10:45 p.m. UTC

TLE line 0: 0 THORAD AGENA D DEB

TLE line 1: 1 42551U 70025TH 25187.94808294 .00001322 00000-0 92247-3 0 9993

TLE line 2: 2 42551 100.0004 224.6653 0012197 265.6052 94.3716 14.00679355591272

Live tracking on map

Real-time ground track for satellite THORAD AGENA D DEB.

In-orbit conjunctions

A list of the most updated potential collisions computed for object THORAD AGENA D DEB.

Target Orbit TCA Probability of collision Miss distance Type
METEOR 2-17 DEB LEO 2024-08-17 01:48:45 0.0001142487 113.0 (m) DEBRIS

Associated space launch

Meteorological research and development satellite

THORAD AGENA D DEB was lifted into orbit during the mission ‘Thorad SLV-2G Agena D | Nimbus 4’, on board a Thorad SLV-2G Agena D space rocket.

The launch took place on April 8, 1970, 8:17 a.m. from Space Launch Complex 2E.

For more information about the launch, click the button.

Launch to space Thorad SLV-2G Agena D | Nimbus 4
Thorad SLV-2G Agena D | Nimbus 4

Agency: N/A

Status: Launch Successful

Launch date: April 8, 1970, 8:17 a.m. UTC

Rocket: Thorad SLV-2G Agena D

Launch pad: Space Launch Complex 2E

Location: Vandenberg SFB, CA, USA

...

Latest news about this satellite

There are no fresh news available about this satellite. Check back as we update our databases every day.


Newsletter sign-up

Weekly statistics, charts and insights to help you stay on top of the space industry.